Flag for Romania Weather past 2 weeks in Cluj-Napoca, Romania

Now
59 °F

Passing clouds.


Feels Like: 58 °F
Forecast: 53 / 63 °F
Wind: 7 mph from East

Location: Cluj Airport-Napoca

Current Time: Oct 20, 2014 at 2:34:35 PM

Latest Report: Oct 20, 2014 at 2:00 PM


Visibility: N/A

Pressure: 30.09 "Hg

Humidity: 63%

Dew point: 46 °F

Location of Cluj-NapocaLocation

Historic Weather in Cluj-Napoca — Graph

°F

Cluj-Napoca temperature yesterday

Maximum temperature yesterday: 61 °F (at 3:00 PM)
Minimum temperature yesterday: 39 °F (at 6:00 AM)
Average temperature yesterday: 49 °F

Past Weeks' High & Low Weather Summary

 TemperatureHumidityPressure
High77 °F (Oct 14, 4:00 PM)100% (Oct 6, 7:00 AM)30.42 "Hg (Oct 6, 7:00 AM)
Low37 °F (Oct 20, 5:30 AM)32% (Oct 5, 3:00 PM)29.80 "Hg (Oct 15, 5:30 PM)
Average56 °F76%30.09 "Hg
* Reported Oct 5 1:00 PM — Oct 20 1:30 PM, Cluj-Napoca, Weather by CustomWeather, © 2014

Note: Actual official high and low records may vary slightly from our data, if they occured in-between our weather recording intervals... More about our weather records

Advertising

Cluj-Napoca weather history for previous 24 hours

 ConditionsComfort  
Time TempWeatherWind HumidityBarometerVisibility
1:30 PM
Oct 20
55 °FPassing clouds.7 mph77%30.12 "HgN/A
1:00 PM52 °FPassing clouds.5 mph88%30.12 "HgN/A
12:30 PM46 °FPartly sunny.5 mph100%30.12 "HgN/A
12:00 PM45 °FFog.2 mph100%30.15 "Hg3 mi
11:30 AM43 °FFog.2 mph100%30.15 "Hg1 mi
11:00 AM43 °FFog.5 mph93%30.15 "Hg1 mi
10:30 AM41 °FFog.5 mph100%30.15 "Hg1 mi
10:00 AM41 °FFog.No wind93%30.18 "Hg0 mi
9:30 AM39 °FFog.No wind100%30.18 "Hg0 mi
9:00 AM39 °FFog.No wind93%30.18 "Hg0 mi
8:30 AM39 °FFog.No wind93%30.18 "Hg0 mi
8:00 AM37 °FFog.No wind100%30.18 "Hg0 mi
6:00 AM37 °FFog.No wind100%30.18 "Hg0 mi
5:30 AM37 °FFog.No wind100%30.21 "Hg0 mi
5:00 AM39 °FFog.No wind93%30.21 "Hg0 mi
4:00 AM39 °FFog.No wind93%30.21 "Hg4 mi
3:00 AM41 °FFog.No wind93%30.21 "Hg4 mi
2:00 AM43 °FFog.No wind93%30.24 "Hg3 mi
1:00 AM43 °FFog.2 mph93%30.27 "Hg4 mi
12:00 AM45 °FClear.No wind93%30.27 "Hg10 mi
11:30 PM
Oct 19
45 °FClear.No wind93%30.27 "Hg10 mi
11:00 PM46 °FClear.No wind87%30.27 "Hg10 mi
10:30 PM46 °FClear.No wind93%30.27 "Hg10 mi
10:00 PM46 °FClear.No wind93%30.27 "Hg10 mi
9:30 PM46 °FClear.No wind93%30.30 "Hg10 mi
9:00 PM48 °FClear.No wind87%30.30 "Hg10 mi
8:30 PM48 °FClear.No wind87%30.30 "Hg10 mi
8:00 PM50 °FClear.2 mph82%30.30 "Hg10 mi
7:30 PM54 °FSunny.No wind77%30.30 "Hg10 mi
7:00 PM54 °FSunny.No wind77%30.30 "Hg10 mi
6:30 PM55 °FPassing clouds.5 mph67%30.27 "HgN/A
6:00 PM57 °FSunny.5 mph67%30.30 "Hg10 mi
5:30 PM59 °FSunny.9 mph63%30.30 "Hg10 mi
5:00 PM61 °FSunny.7 mph55%30.30 "Hg10 mi
4:30 PM61 °FPassing clouds.7 mph59%30.33 "HgN/A
4:00 PM61 °FPassing clouds.7 mph59%30.33 "HgN/A
3:30 PM61 °FPassing clouds.5 mph52%30.33 "HgN/A
3:00 PM61 °FPassing clouds.5 mph55%30.36 "HgN/A
2:30 PM59 °FPassing clouds.5 mph59%30.36 "HgN/A
2:00 PM59 °FPassing clouds.5 mph55%30.36 "HgN/A
Weather by CustomWeather, © 2014

See weather overviewHow to use our weather pages